Home   Weather   Weilheim in Oberbayern   Past weeks

Flag for Germany Past Weather in Weilheim in Oberbayern, Bavaria, Germany — Yesterday and Last 2 Weeks

Now
46 °F

Passing clouds.


Feels Like: 43 °F
Forecast: 27 / 49 °F
Wind: 7 mph from Southwest

Location: Altenstadt Airport

Current Time: Dec 8, 2016 at 5:32:02 pm

Latest Report: Dec 8, 2016 at 4:20 pm


Visibility: N/A

Pressure: 30.45 "Hg (28.45 "Hg at 560m altitude)

Humidity: 34%

Dew Point: 19 °F

Location of Weilheim in OberbayernLocation

Past Weather in Weilheim in Oberbayern — Graph

°F

Weilheim in Oberbayern Temperature Yesterday

Maximum temperature yesterday: 45 °F (at 1:20 pm)
Minimum temperature yesterday: 23 °F (at 2:20 am)
Average temperature yesterday: 30 °F

High & Low Weather Summary for the Past Weeks

 TemperatureHumidityPressure
High54 °F (Dec 8, 1:20 pm)100% (Nov 23, 7:20 pm)30.54 "Hg (Nov 23, 7:20 pm)
Low18 °F (Nov 30, 1:20 am)26% (Dec 8, 1:20 pm)29.95 "Hg (Nov 25, 4:20 am)
Average33 °F84%30.22 "Hg
* Reported Nov 23 3:20 pm — Dec 8 3:20 pm, Weilheim in Oberbayern, Weather by CustomWeather, © 2016

Note: Actual official high and low records may vary slightly from our data, if they occured in-between our weather recording intervals... More about our weather records

Advertising

Weilheim in Oberbayern Weather History for the Previous 24 Hours

Scroll right to see more
 ConditionsComfort  
Time TempWeatherWind HumidityBarometerVisibility
3:20 pm
Thu, Dec 8
52 °FPassing clouds.7 mph30%30.48 "HgN/A
2:20 pm52 °FPassing clouds.10 mph30%30.48 "HgN/A
1:20 pm54 °FPassing clouds.10 mph26%30.48 "HgN/A
12:20 pm50 °FPassing clouds.3 mph35%30.48 "HgN/A
11:20 am41 °FPassing clouds.5 mph49%30.51 "HgN/A
10:55 am37 °FScattered clouds.2 mph60%30.51 "HgN/A
10:20 am36 °FScattered clouds.1 mph52%30.54 "HgN/A
9:20 am28 °FPartly sunny.5 mph69%30.51 "HgN/A
8:20 am27 °FPartly sunny.5 mph64%30.51 "HgN/A
7:20 am30 °FPassing clouds.3 mph55%30.51 "HgN/A
6:20 am28 °FPassing clouds.5 mph64%30.51 "HgN/A
5:20 am25 °FPassing clouds.5 mph74%30.51 "HgN/A
4:20 am27 °FChilly.2 mph64%30.54 "HgN/A
3:20 am28 °FChilly.3 mph64%30.54 "HgN/A
2:20 am30 °FChilly.5 mph59%30.54 "HgN/A
1:20 am28 °FChilly.5 mph69%30.51 "HgN/A
12:20 am27 °FChilly.6 mph74%30.54 "HgN/A
11:20 pm
Wed, Dec 7
27 °FChilly.5 mph80%30.54 "HgN/A
10:20 pm27 °FChilly.5 mph80%30.54 "HgN/A
9:20 pm28 °FChilly.6 mph80%30.54 "HgN/A
8:20 pm30 °FPassing clouds.3 mph75%30.51 "HgN/A
7:20 pm30 °FPassing clouds.3 mph80%30.51 "HgN/A
6:20 pm34 °FPartly cloudy.1 mph70%30.51 "HgN/A
5:20 pm36 °FPartly cloudy.2 mph65%30.48 "HgN/A
Weather by CustomWeather, © 2016

See weather overviewHow to use our weather pages